Change the Weather History Date:

Friday, February 11, 2011

  Actual Average Record
Temperature  
Mean Temperature 18 °F -  
Max Temperature 28 °F 33 °F 57 °F (1981)
Min Temperature 8 °F 17 °F -15 °F (1983)
Degree Days  
Heating Degree Days 47    
Moisture  
Dew Point -1 °F    
Average Humidity 46    
Maximum Humidity 60    
Minimum Humidity 31    
Precipitation  
Precipitation 0.00 in - - ()
Snow  
Snow 0.00 in - - ()
Snow Depth 19.00 in    
Sea Level Pressure  
Sea Level Pressure 30.09 in    
Wind  
Wind Speed 6 mph (SW)    
Max Wind Speed 14 mph    
Max Gust Speed -    
Visibility 10 miles    
Events      
Averages and records for this station are not official NWS values.
T = Trace of Precipitation, MM = Missing Value Source: NWS Daily Summary

Daily Weather History Graph

Daily Weather History Graph

Search for Another Location

Airport or City:

Trip Planner

Search our weather history database for the weather conditions in past years. The results will help you decide how hot, cold, wet, or windy it might be!

Date:

Astronomy

Feb. 11, 2011 Rise Set
Actual Time 6:46 AM EST 5:08 PM EST
Civil Twilight 6:17 AM EST 5:38 PM EST
Nautical Twilight 5:43 AM EST 6:11 PM EST
Astronomical Twilight 5:10 AM EST 6:44 PM EST
Moon 10:22 AM EST (2/11) 12:57 AM EST (2/11)
Length of Visible Light 11h 20m
Length of Day
10h 22m
First Quarter, 54% of the Moon is Illuminated
Feb 11
First Quarter
Feb 18
Full
Feb 24
Last Quarter
Mar 4
New
Mar 12
First Quarter

Hourly Weather History & Observations

Time (EST) Temp. Windchill Dew Point Humidity Pressure Visibility Wind Dir Wind Speed Gust Speed Precip Events Conditions
12:55 AM 12.2 °F 2.9 °F 0.5 °F 60% 30.07 in 10.0 mi WSW 5.8 mph - N/A   Clear
1:55 AM 10.9 °F - -0.9 °F 59% 30.07 in 10.0 mi Calm Calm - N/A   Clear
2:55 AM 9.9 °F 0.2 °F -1.8 °F 59% 30.08 in 10.0 mi SSW 5.8 mph - N/A   Clear
3:55 AM 10.0 °F 3.6 °F -1.8 °F 59% 30.09 in 10.0 mi SW 3.5 mph - N/A   Clear
4:55 AM 9.9 °F 3.4 °F -2.2 °F 58% 30.10 in 10.0 mi SSW 3.5 mph - N/A   Clear
5:55 AM 8.8 °F -2.4 °F -3.1 °F 59% 30.11 in 10.0 mi South 6.9 mph - N/A   Clear
6:55 AM 8.6 °F 0.1 °F -3.8 °F 57% 30.12 in 10.0 mi SW 4.6 mph - N/A   Clear
7:55 AM 11.8 °F 5.7 °F -2.2 °F 53% 30.13 in 10.0 mi West 3.5 mph - N/A   Partly Cloudy
8:55 AM 14.2 °F 8.4 °F -0.4 °F 52% 30.13 in 10.0 mi WSW 3.5 mph - N/A   Partly Cloudy
9:55 AM 19.8 °F 8.3 °F -1.7 °F 39% 30.12 in 10.0 mi West 10.4 mph - N/A   Partly Cloudy
10:55 AM 22.1 °F 11.3 °F -0.0 °F 38% 30.12 in 10.0 mi WSW 10.4 mph - N/A   Partly Cloudy
11:55 AM 24.3 °F 15.4 °F 0.7 °F 36% 30.10 in 10.0 mi WSW 8.1 mph - N/A   Partly Cloudy
12:55 PM 25.3 °F 13.6 °F -0.6 °F 33% 30.08 in 10.0 mi WSW 13.8 mph - N/A   Scattered Clouds
1:55 PM 26.2 °F 15.8 °F -0.9 °F 31% 30.06 in 10.0 mi WSW 11.5 mph - N/A   Mostly Cloudy
2:55 PM 27.5 °F 18.6 °F -0.0 °F 31% 30.05 in 10.0 mi WSW 9.2 mph - N/A   Mostly Cloudy
3:55 PM 28.4 °F 19.7 °F 1.0 °F 31% 30.06 in 10.0 mi West 9.2 mph - N/A   Mostly Cloudy
4:55 PM 26.8 °F 19.3 °F 2.5 °F 35% 30.06 in 10.0 mi West 6.9 mph - N/A   Mostly Cloudy
5:55 PM 24.1 °F 19.7 °F -0.2 °F 35% 30.07 in 10.0 mi South 3.5 mph - N/A   Mostly Cloudy
6:55 PM 23.0 °F 15.8 °F -0.4 °F 36% 30.08 in 10.0 mi South 5.8 mph - N/A   Mostly Cloudy
7:55 PM 20.3 °F 12.5 °F -0.8 °F 40% 30.09 in 10.0 mi SSW 5.8 mph - N/A   Mostly Cloudy
8:55 PM 18.0 °F 11.1 °F 1.2 °F 48% 30.08 in 10.0 mi South 4.6 mph - N/A   Scattered Clouds
9:55 PM 17.4 °F 9.1 °F -0.2 °F 46% 30.07 in 10.0 mi South 5.8 mph - N/A   Partly Cloudy
10:55 PM 16.9 °F 11.5 °F -0.0 °F 48% 30.06 in 10.0 mi South 3.5 mph - N/A   Partly Cloudy
11:55 PM 16.5 °F - 1.8 °F 52% 30.04 in 10.0 mi Calm Calm - N/A   Partly Cloudy